Theta_e
308 307 310 311 312 312 313 312 310 311 313 320 319 320 319 319 319 318 318 317 316 315 315 315 315 318 321 321 322 322 322 320 320 319 321 321 320 320 320 320 320 320 321 321
308 307 306 307 312 312 310 314 314 314 317 316 317 318 319 318 318 318 317 315 314 314 314 314 313 313 316 320 321 321 322 323 322 322 320 320 320 319 319 319 320 320 319 319
306 307 307 309 311 311 310 310 313 314 317 318 319 319 318 317 316 315 313 311 310 311 312 314 314 313 313 317 321 322 322 323 323 323 322 320 320 320 319 319 319 319 319 319
308 308 308 307 311 310 310 310 312 315 316 316 316 316 315 314 313 311 310 308 308 307 308 309 309 310 308 311 316 320 322 323 323 323 323 323 321 320 320 320 319 319 319 319
307 307 306 310 309 310 310 314 313 315 315 316 314 313 312 309 308 306 308 308 307 306 306 306 308 309 306 309 312 314 318 320 320 321 321 323 324 323 321 319 319 318 319 319
304 307 306 306 306 307 310 315 314 314 315 314 312 315 314 309 308 308 308 307 306 307 306 305 305 305 308 309 309 309 311 315 317 321 320 321 322 323 324 322 320 318 318 318
304 305 305 305 305 308 313 313 313 313 313 312 311 309 307 308 306 305 304 304 304 305 304 303 303 303 305 306 308 308 309 310 314 316 317 318 320 322 322 323 321 319 318 318
304 305 304 304 308 311 310 310 311 311 310 311 307 307 307 303 302 302 303 302 302 302 302 301 301 301 302 303 304 306 307 308 310 313 318 320 321 321 321 321 321 320 318 318
304 304 303 307 308 308 308 309 309 310 310 308 305 301 300 301 301 300 301 301 300 301 300 300 299 298 299 299 301 303 306 307 309 311 315 317 319 320 320 319 319 319 317 315
305 306 306 306 307 306 306 307 309 310 309 306 302 300 299 298 298 299 300 300 299 299 298 298 297 297 296 296 297 300 303 303 305 308 308 310 311 313 313 313 313 312 310 307
304 305 305 301 304 304 303 308 305 304 303 300 299 296 295 295 296 297 298 298 298 297 297 296 295 294 295 295 296 297 299 300 300 301 302 302 303 303 303 304 304 305 301 298
304 298 301 297 298 300 300 300 300 302 299 298 299 298 297 295 293 294 295 296 296 295 295 294 294 293 293 293 293 293 295 296 296 297 297 297 297 297 296 297 297 297 298 298
296 297 295 297 297 297 297 297 299 301 298 297 297 296 295 294 293 293 294 295 296 294 293 292 292 292 292 291 291 291 292 292 293 292 291 291 290 290 290 287 290 291 291 292
296 297 295 293 293 296 295 296 296 296 296 296 294 294 294 293 293 293 293 292 293 292 293 293 292 291 289 289 289 290 290 291 291 291 290 289 288 286 286 285 284 284 285 286
293 292 291 291 292 291 293 293 294 293 293 293 293 293 293 292 293 292 291 290 290 290 291 291 291 291 290 289 289 289 289 289 289 288 288 287 286 286 285 284 284 284 284 285
291 291 288 287 288 288 289 290 290 290 291 291 292 292 292 291 290 290 290 289 289 289 289 289 290 290 289 288 288 288 287 287 287 287 286 286 286 287 286 287 286 286 286 284
288 288 286 286 285 286 285 286 287 288 289 290 290 290 290 290 289 288 288 287 287 287 287 287 288 288 288 287 287 287 286 286 287 287 287 287 287 287 286 286 286 285 284 283
284 283 283 283 283 283 285 286 287 287 287 288 289 288 288 288 287 286 286 285 286 286 286 286 286 286 287 286 286 286 286 286 286 287 287 287 287 287 286 286 286 286 284 280
283 282 282 283 282 281 283 284 285 285 286 286 286 286 286 285 285 284 284 284 284 285 285 285 285 286 286 286 286 287 286 286 287 287 287 287 287 286 285 284 282 279 278 277
282 282 281 281 281 282 282 281 282 282 283 283 283 283 283 283 283 283 283 284 283 283 283 283 283 284 285 285 285 285 286 287 287 287 286 286 285 281 279 279 278 277 277 276
280 280 280 280 280 280 280 281 281 281 281 281 281 281 281 281 281 281 281 282 281 281 281 282 283 284 284 284 284 285 285 286 285 284 282 280 279 278 278 277 277 276 276 275
279 279 278 278 278 278 279 279 279 279 279 279 279 279 279 279 279 280 280 280 280 279 280 281 282 282 283 283 283 283 283 281 280 279 279 278 277 277 276 276 275 275 275 274
279 278 277 277 278 277 277 277 277 277 277 277 277 277 278 278 278 278 279 278 278 278 279 280 280 280 280 281 280 278 278 278 278 277 277 276 276 276 275 275 274 274 274 273
277 276 276 276 275 275 276 276 276 276 276 276 276 276 276 277 277 277 276 276 277 277 278 278 278 278 278 278 278 277 277 276 276 276 276 275 275 275 274 274 274 273 273 273
277 276 276 275 275 275 275 274 274 275 275 275 275 275 275 275 276 275 275 275 275 276 276 276 276 276 276 276 276 276 275 275 275 275 275 274 274 274 273 273 273 272 272 272
276 276 275 275 275 275 275 274 275 275 274 274 274 274 274 274 274 274 274 274 275 275 275 275 275 276 276 276 276 276 275 274 274 274 273 273 273 272 272 272 272 272 272 271
276 276 275 275 275 275 275 275 275 274 274 274 274 273 273 273 273 274 274 274 274 274 274 274 274 274 274 274 274 274 273 273 272 272 272 272 272 272 271 271 271 271 271 271
Wind_Speed
14 7 1 3 2 3 2 3 13 17 13 12 11 6 10 13 12 13 11 14 17 19 23 25 20 11 2 9 10 11 13 11 11 13 15 15 16 15 15 15 16 15 15 20
3 13 6 1 0 5 3 2 4 6 4 3 4 12 11 13 14 15 11 12 13 14 16 24 19 18 12 2 6 13 11 11 12 12 15 18 17 17 16 16 16 17 17 19
5 6 7 5 2 1 2 4 3 5 4 7 11 12 11 14 14 14 11 11 10 9 10 10 16 19 14 5 1 8 11 8 11 13 15 17 19 21 20 19 19 18 18 19
6 10 3 1 5 6 2 11 7 6 10 9 13 17 16 13 13 11 10 9 10 10 9 10 8 10 11 7 2 2 7 8 8 12 16 16 18 21 23 22 22 22 20 18
3 6 4 2 4 2 1 2 1 11 11 14 16 16 15 13 12 11 10 9 9 10 12 13 12 11 9 9 8 4 2 10 15 19 16 16 15 17 20 24 24 24 22 21
4 4 2 1 6 6 3 1 2 12 11 12 9 4 2 6 7 8 8 7 8 10 12 13 14 13 13 11 8 7 6 3 9 16 22 27 17 13 17 22 26 26 24 23
6 4 6 5 12 9 2 3 8 18 12 13 4 2 7 2 3 6 7 7 7 8 12 15 15 14 13 12 11 10 11 9 9 11 18 17 21 17 17 20 24 27 28 27
2 3 6 18 10 4 4 3 6 13 8 9 15 13 9 4 5 5 6 8 10 10 12 15 16 15 14 12 12 13 12 10 10 10 11 16 16 20 22 24 26 29 30 31
4 3 5 12 9 10 6 3 2 9 10 17 17 11 8 6 5 6 8 9 11 12 12 14 15 15 15 14 12 12 11 10 9 9 8 10 14 20 25 27 32 31 31 30
3 1 2 13 9 11 10 14 12 16 14 12 14 10 9 7 6 7 8 9 11 13 15 15 15 15 15 14 12 10 10 9 7 5 4 3 6 13 18 21 24 26 25 24
5 5 7 20 20 12 13 15 14 16 15 13 12 11 9 7 7 8 10 11 13 15 15 15 15 14 14 13 12 10 8 7 7 7 6 5 4 4 6 10 13 19 21 22
3 14 4 11 20 13 13 12 13 16 12 13 12 12 10 10 10 10 10 11 12 14 14 13 13 13 13 12 11 8 7 8 8 9 10 11 11 14 16 12 10 7 9 10
5 7 16 10 22 18 15 11 14 15 9 12 11 11 11 11 11 10 8 8 9 11 12 12 13 13 13 13 10 8 9 11 11 13 17 19 22 23 29 25 20 18 18 21
18 3 12 22 14 16 12 13 11 12 9 9 8 8 9 10 9 8 7 8 8 9 10 12 12 13 14 13 11 10 10 11 12 15 18 22 25 29 32 34 37 36 29 31
12 14 11 8 11 14 12 10 10 10 9 8 7 7 7 6 7 7 7 7 8 9 10 10 11 12 13 12 10 10 10 12 14 17 20 23 28 32 34 37 40 40 37 33
4 8 11 11 11 12 11 10 9 9 7 6 6 8 8 7 6 6 7 7 7 8 11 11 12 13 13 11 8 9 12 12 14 18 21 24 27 30 32 34 35 31 27 25
8 10 12 12 12 11 10 8 7 6 6 5 5 5 5 6 5 6 7 8 8 8 9 10 11 11 11 10 9 11 14 16 17 21 24 26 27 29 30 29 28 26 25 21
8 6 7 9 10 10 9 8 7 6 5 5 3 2 2 4 4 4 6 7 6 6 8 9 9 9 9 10 10 13 16 18 21 23 25 26 25 25 23 21 22 21 21 19
9 9 10 10 9 7 7 7 5 3 3 2 1 2 3 4 4 4 4 3 4 4 7 8 8 8 9 11 12 14 17 19 22 22 22 21 20 19 18 18 18 19 20 20
9 10 10 10 9 8 9 8 5 3 1 1 2 4 5 6 5 4 3 2 4 5 6 6 5 7 9 10 11 14 16 18 18 19 18 17 16 16 17 17 18 19 19 18
11 11 11 11 11 10 8 7 5 3 3 3 4 5 5 7 6 4 3 3 5 5 4 5 5 6 8 9 11 12 12 12 12 13 15 16 17 17 18 18 18 17 17 16
12 11 11 10 9 9 8 8 6 5 5 6 6 6 5 6 5 4 4 4 4 4 4 4 6 6 8 9 10 9 9 11 13 15 15 16 16 17 17 17 16 16 15 14
12 11 10 9 9 9 9 6 6 5 6 7 7 6 5 6 6 5 3 5 4 4 4 5 6 7 7 9 11 10 11 13 15 15 16 15 15 15 15 15 15 14 13 12
8 8 8 8 7 5 4 7 6 6 6 7 7 7 6 5 6 7 7 7 5 4 5 7 7 9 10 11 11 12 13 14 14 15 15 15 14 14 14 13 12 11 10 9
7 7 8 6 4 5 6 7 6 7 7 7 7 6 6 5 5 8 7 7 6 6 8 9 11 12 11 12 12 13 13 14 13 13 13 13 12 12 11 11 10 9 8 7
4 4 5 5 5 6 6 7 7 7 8 7 7 8 8 9 8 7 7 7 7 7 9 10 11 11 12 12 12 11 11 11 11 11 11 10 10 9 9 8 7 6 5 4
4 5 6 6 7 7 8 8 8 8 8 8 8 9 9 8 8 7 7 7 8 9 9 11 12 12 11 11 10 10 9 9 9 8 8 7 7 6 6 5 5 4 3 3
Wind_Direction
346 339 140 245 341 9 30 241 208 224 222 196 195 181 144 127 114 94 71 57 49 41 20 8 12 28 147 219 230 221 214 211 213 210 207 207 211 208 208 212 209 218 210 213
264 306 313 183 265 11 9 114 72 130 163 274 202 130 134 112 110 86 62 52 45 57 43 11 1 352 16 9 201 218 229 216 220 217 217 212 213 214 212 210 214 214 216 219
295 332 308 55 274 79 319 342 334 227 148 143 126 123 110 106 97 90 73 53 51 36 22 35 355 344 342 352 316 218 217 214 226 226 223 219 217 218 219 218 214 213 218 222
297 315 71 210 30 187 109 288 263 146 136 123 109 96 81 75 91 82 71 45 33 21 14 5 359 325 327 334 28 119 177 185 224 238 232 221 222 225 224 222 222 220 216 217
320 319 296 76 55 77 152 271 77 144 129 117 113 94 62 61 68 73 61 34 18 10 360 357 353 336 342 340 352 342 125 200 213 221 236 228 229 229 232 228 226 224 221 217
333 318 314 90 322 299 207 253 129 140 134 109 52 73 63 40 41 45 46 21 9 2 359 8 6 350 338 337 339 337 318 284 236 219 224 230 233 247 238 237 231 225 219 218
265 281 292 315 317 312 287 13 117 121 115 108 124 188 156 150 53 41 42 32 25 7 2 5 3 1 1 354 342 331 323 303 291 269 246 228 224 251 245 240 235 228 223 218
200 233 256 357 332 29 320 304 150 146 171 138 129 131 146 140 80 58 45 37 30 25 13 7 2 2 3 2 358 347 338 317 297 291 272 261 249 253 252 240 236 227 226 222
242 249 340 342 313 318 286 207 12 136 134 138 133 125 117 83 47 33 34 28 20 18 12 9 4 2 1 2 3 359 347 334 328 317 296 268 237 238 237 229 223 218 215 212
283 35 24 14 14 38 64 101 113 122 126 131 116 108 96 81 55 31 24 24 20 17 17 10 6 4 2 1 3 6 356 344 352 346 337 284 231 217 215 214 209 203 198 192
239 5 311 23 25 44 61 96 99 101 102 100 105 97 95 80 53 36 30 23 18 16 13 8 5 3 5 4 5 5 10 6 23 39 53 69 123 149 191 201 211 204 189 178
9 355 72 36 43 57 67 75 84 80 79 82 79 79 73 69 53 42 34 23 10 8 10 14 14 14 15 18 20 25 41 52 61 72 82 88 95 102 90 95 108 143 175 188
331 14 48 52 53 56 58 71 90 107 83 74 71 69 66 57 56 46 37 26 9 9 13 20 20 19 27 33 33 48 67 74 80 93 103 105 107 108 109 109 113 122 138 144
27 39 24 36 29 44 51 53 68 81 80 77 69 67 67 66 57 47 41 38 28 21 22 27 27 28 33 37 42 59 71 86 105 109 114 118 118 116 118 118 115 111 114 119
21 38 47 36 43 46 66 53 57 69 65 61 56 54 54 56 67 55 43 39 34 33 41 42 43 47 47 44 49 66 84 102 115 126 130 130 131 131 129 126 123 121 125 124
355 12 24 38 44 42 49 61 58 48 41 42 45 43 38 41 56 69 68 57 51 51 52 49 50 55 54 54 68 97 106 115 123 123 126 127 126 124 123 122 121 122 121 118
27 5 4 19 24 29 39 45 49 45 26 26 38 40 37 30 39 65 72 72 66 66 65 62 60 62 67 75 92 108 115 121 122 124 126 127 126 127 127 126 124 125 122 123
25 24 16 9 13 15 23 32 37 32 28 30 29 39 70 62 56 72 74 71 72 79 81 75 72 77 87 98 111 120 124 129 130 129 128 130 130 131 130 128 125 124 125 127
7 10 13 12 13 18 27 33 29 11 347 346 346 154 132 115 103 99 88 87 87 89 86 81 82 96 107 111 122 128 131 134 134 134 134 134 134 134 133 133 132 133 133 132
10 12 12 13 14 17 19 22 31 34 82 140 163 154 147 135 127 124 117 127 105 102 97 98 111 123 126 128 139 142 142 140 139 140 144 145 144 139 137 137 137 135 135 134
25 18 14 14 17 20 26 32 31 39 84 127 147 148 142 137 133 124 118 119 112 106 113 121 129 134 136 140 146 144 144 144 149 149 147 146 143 140 140 139 138 137 137 138
20 18 19 21 26 29 32 36 44 61 82 102 110 114 120 125 120 124 116 106 110 100 123 139 141 139 144 151 154 150 151 152 149 143 143 142 142 141 140 139 139 139 139 138
14 14 19 24 33 34 29 36 51 71 87 98 104 105 111 118 112 101 103 102 102 107 133 140 133 137 143 150 140 143 143 143 141 140 141 141 142 142 141 140 141 141 140 141
26 34 40 44 46 54 68 71 71 80 88 94 98 97 95 95 104 106 105 102 102 112 126 120 123 129 128 132 135 138 140 141 141 141 140 140 141 141 142 141 142 141 143 145
20 28 31 36 50 60 62 66 68 76 78 85 90 96 99 95 105 106 104 109 109 117 120 116 119 114 122 128 132 134 132 131 132 135 136 139 139 143 144 145 146 148 151 152
56 53 42 48 56 63 64 64 64 71 73 81 93 95 99 101 101 102 106 111 116 120 122 119 120 126 130 130 128 127 130 133 134 136 139 143 145 148 147 150 153 155 159 164
44 41 44 51 57 59 59 63 69 78 86 90 104 104 103 102 101 101 104 109 112 115 121 122 118 117 120 126 130 130 134 137 138 140 141 145 146 150 151 154 160 172 192 217